| time (UTC) | temp F | wind direction | speed MPH | gust MPH | rain 1hr in | rain 24hr in | rain mn in | humidity % | barometer mb |
| 20260504232505 | 72 | 225 | 17.0 | 26.0 | 0.00 | 0.00 | 0.00 | 53 | 999.6 |
| 20260504231505 | 72 | 210 | 11.0 | 26.0 | 0.00 | 0.00 | 0.00 | 52 | 999.6 |
| 20260504230505 | 73 | 223 | 17.0 | 26.0 | 0.00 | 0.00 | 0.00 | 50 | 999.6 |
| 20260504230005 | 73 | 210 | 16.0 | 32.0 | 0.00 | 0.00 | 0.00 | 49 | 999.7 |
| 20260504225004 | 73 | 209 | 15.0 | 28.0 | 0.00 | 0.00 | 0.00 | 48 | 999.8 |
| 20260504224005 | 74 | 226 | 14.0 | 26.0 | 0.00 | 0.00 | 0.00 | 48 | 999.7 |
| 20260504222505 | 75 | 214 | 13.0 | 23.0 | 0.00 | 0.00 | 0.00 | 47 | 999.6 |
| 20260504221504 | 75 | 227 | 13.0 | 26.0 | 0.00 | 0.00 | 0.00 | 45 | 999.6 |
| 20260504221005 | 75 | 206 | 16.0 | 30.0 | 0.00 | 0.00 | 0.00 | 45 | 999.4 |
| 20260504220504 | 75 | 226 | 13.0 | 33.0 | 0.00 | 0.00 | 0.00 | 46 | 999.4 |
| 20260504220005 | 76 | 216 | 16.0 | 29.0 | 0.00 | 0.00 | 0.00 | 46 | 999.5 |
| 20260504215504 | 76 | 224 | 16.0 | 31.0 | 0.00 | 0.00 | 0.00 | 46 | 999.5 |
| 20260504214005 | 76 | 233 | 18.0 | 32.0 | 0.00 | 0.00 | 0.00 | 46 | 999.4 |
| 20260504213504 | 76 | 224 | 14.0 | 29.0 | 0.00 | 0.00 | 0.00 | 47 | 999.4 |
| 20260504213004 | 76 | 214 | 13.0 | 24.0 | 0.00 | 0.00 | 0.00 | 47 | 999.3 |
| 20260504212504 | 76 | 219 | 20.0 | 31.0 | 0.00 | 0.00 | 0.00 | 46 | 999.3 |
| 20260504212004 | 76 | 224 | 12.0 | 32.0 | 0.00 | 0.00 | 0.00 | 46 | 999.5 |
| 20260504211005 | 76 | 236 | 15.0 | 26.0 | 0.00 | 0.00 | 0.00 | 48 | 999.5 |
| 20260504210504 | 76 | 229 | 17.0 | 28.0 | 0.00 | 0.00 | 0.00 | 49 | 999.4 |
| 20260504210004 | 76 | 213 | 10.0 | 20.0 | 0.00 | 0.00 | 0.00 | 50 | 999.4 |
| 20260504205004 | 76 | 225 | 12.0 | 23.0 | 0.00 | 0.00 | 0.00 | 50 | 999.7 |
| 20260504204505 | 76 | 229 | 14.0 | 26.0 | 0.00 | 0.00 | 0.00 | 49 | 999.8 |
| 20260504203505 | 76 | 231 | 13.0 | 23.0 | 0.00 | 0.00 | 0.00 | 49 | 999.8 |
| 20260504203004 | 76 | 209 | 10.0 | 22.0 | 0.00 | 0.00 | 0.00 | 49 | 999.8 |
| 20260504202504 | 76 | 208 | 9.0 | 20.0 | 0.00 | 0.00 | 0.00 | 50 | 999.9 |
| 20260504202005 | 76 | 238 | 11.0 | 21.0 | 0.00 | 0.00 | 0.00 | 49 | 999.9 |
| 20260504201506 | 75 | 224 | 14.0 | 23.0 | 0.00 | 0.00 | 0.00 | 49 | 1000.1 |
| 20260504201004 | 76 | 236 | 10.0 | 22.0 | 0.00 | 0.00 | 0.00 | 50 | 1000.2 |
| 20260504200504 | 76 | 215 | 9.0 | 24.0 | 0.00 | 0.00 | 0.00 | 52 | 1000.3 |
| 20260504200004 | 75 | 209 | 9.0 | 21.0 | 0.00 | 0.00 | 0.00 | 52 | 1000.4 |
| 20260504195504 | 75 | 216 | 13.0 | 22.0 | 0.00 | 0.00 | 0.00 | 51 | 1000.4 |
| 20260504195004 | 75 | 227 | 14.0 | 22.0 | 0.00 | 0.00 | 0.00 | 51 | 1000.5 |
| 20260504194505 | 74 | 225 | 12.0 | 21.0 | 0.00 | 0.00 | 0.00 | 52 | 1000.5 |
| 20260504194004 | 74 | 214 | 13.0 | 21.0 | 0.00 | 0.00 | 0.00 | 52 | 1000.8 |
| 20260504193504 | 74 | 223 | 13.0 | 24.0 | 0.00 | 0.00 | 0.00 | 52 | 1000.9 |
| 20260504193004 | 74 | 214 | 12.0 | 22.0 | 0.00 | 0.00 | 0.00 | 52 | 1000.8 |
| 20260504192504 | 74 | 219 | 10.0 | 20.0 | 0.00 | 0.00 | 0.00 | 53 | 1000.8 |
| 20260504192004 | 73 | 219 | 9.0 | 15.0 | 0.00 | 0.00 | 0.00 | 54 | 1000.9 |
| 20260504191003 | 73 | 194 | 10.0 | 26.0 | 0.00 | 0.00 | 0.00 | 54 | 1000.8 |
| 20260504190004 | 75 | 237 | 14.0 | 26.0 | 0.00 | 0.00 | 0.00 | 53 | 1000.9 |
| 20260504185504 | 74 | 212 | 12.0 | 22.0 | 0.00 | 0.00 | 0.00 | 53 | 1001.0 |
| 20260504185004 | 74 | 223 | 13.0 | 20.0 | 0.00 | 0.00 | 0.00 | 53 | 1001.1 |
| 20260504184505 | 74 | 221 | 10.0 | 23.0 | 0.00 | 0.00 | 0.00 | 54 | 1001.0 |
| 20260504184004 | 74 | 211 | 11.0 | 23.0 | 0.00 | 0.00 | 0.00 | 55 | 1001.1 |
| 20260504183504 | 74 | 234 | 9.0 | 23.0 | 0.00 | 0.00 | 0.00 | 55 | 1001.3 |
| 20260504183004 | 73 | 198 | 13.0 | 26.0 | 0.00 | 0.00 | 0.00 | 54 | 1001.4 |
| 20260504182504 | 73 | 226 | 9.0 | 21.0 | 0.00 | 0.00 | 0.00 | 55 | 1001.4 |
| 20260504182003 | 73 | 213 | 11.0 | 26.0 | 0.00 | 0.00 | 0.00 | 55 | 1001.5 |
| 20260504181504 | 73 | 238 | 12.0 | 20.0 | 0.00 | 0.00 | 0.00 | 55 | 1001.5 |
| 20260504181004 | 72 | 203 | 8.0 | 22.0 | 0.00 | 0.00 | 0.00 | 55 | 1001.6 |
| 20260504180004 | 72 | 222 | 10.0 | 18.0 | 0.00 | 0.00 | 0.00 | 54 | 1001.7 |
| 20260504175504 | 72 | 211 | 8.0 | 15.0 | 0.00 | 0.00 | 0.00 | 55 | 1001.7 |
| 20260504175004 | 72 | 221 | 8.0 | 15.0 | 0.00 | 0.00 | 0.00 | 54 | 1001.8 |
| 20260504174504 | 71 | 223 | 8.0 | 18.0 | 0.00 | 0.00 | 0.00 | 53 | 1001.9 |
| 20260504174004 | 72 | 226 | 8.0 | 18.0 | 0.00 | 0.00 | 0.00 | 53 | 1002.1 |
| 20260504173504 | 71 | 201 | 9.0 | 18.0 | 0.00 | 0.00 | 0.00 | 52 | 1002.2 |
| 20260504173003 | 72 | 191 | 9.0 | 18.0 | 0.00 | 0.00 | 0.00 | 51 | 1002.2 |
| 20260504172504 | 72 | 180 | 6.0 | 18.0 | 0.00 | 0.00 | 0.00 | 51 | 1002.3 |
| 20260504171504 | 72 | 221 | 10.0 | 20.0 | 0.00 | 0.00 | 0.00 | 49 | 1002.5 |
| 20260504171004 | 71 | 213 | 9.0 | 20.0 | 0.00 | 0.00 | 0.00 | 49 | 1002.7 |
| 20260504170504 | 71 | 220 | 7.0 | 14.0 | 0.00 | 0.00 | 0.00 | 47 | 1002.7 |
| 20260504150506 | 64 | 232 | 8.0 | 13.0 | 0.00 | 0.00 | 0.00 | 61 | 1004.0 |
| 20260504141006 | 60 | 219 | 6.0 | 12.0 | 0.00 | 0.00 | 0.00 | 67 | 1004.4 |
| 20260504140506 | 60 | 230 | 5.0 | 12.0 | 0.00 | 0.00 | 0.00 | 67 | 1004.4 |
| 20260504130507 | 55 | 215 | 7.0 | 13.0 | 0.00 | 0.00 | 0.00 | 72 | 1005.0 |
| 20260504110505 | 49 | 218 | 5.0 | 9.0 | 0.00 | 0.00 | 0.00 | 78 | 1005.1 |
| 20260504100506 | 48 | 223 | 2.0 | 6.0 | 0.00 | 0.00 | 0.00 | 78 | 1005.0 |
| 20260504082005 | 48 | 187 | 2.0 | 6.0 | 0.00 | 0.00 | 0.00 | 79 | 1005.3 |
| 20260504081505 | 48 | 190 | 2.0 | 6.0 | 0.00 | 0.00 | 0.00 | 78 | 1005.5 |
| 20260504080505 | 48 | 202 | 1.0 | 7.0 | 0.00 | 0.00 | 0.00 | 78 | 1005.6 |
| 20260504050505 | 49 | 218 | 2.0 | 6.0 | 0.00 | 0.00 | 0.00 | 76 | 1008.0 |
| 20260504050005 | 49 | 181 | 2.0 | 6.0 | 0.00 | 0.00 | 0.00 | 76 | 1008.1 |
| 20260504045505 | 49 | 197 | 3.0 | 6.0 | 0.00 | 0.00 | 0.00 | 76 | 1008.0 |
| 20260504045005 | 49 | 214 | 2.0 | 6.0 | 0.00 | 0.00 | 0.00 | 76 | 1008.0 |
| 20260504044005 | 49 | 192 | 1.0 | 5.0 | 0.00 | 0.00 | 0.00 | 76 | 1008.1 |
| 20260504043504 | 49 | 196 | 2.0 | 7.0 | 0.00 | 0.00 | 0.00 | 76 | 1008.1 |
| 20260504042505 | 49 | 203 | 4.0 | 8.0 | 0.00 | 0.00 | 0.00 | 76 | 1008.1 |
| 20260504042005 | 49 | 219 | 2.0 | 6.0 | 0.00 | 0.00 | 0.00 | 76 | 1008.1 |
| 20260504041505 | 49 | 191 | 4.0 | 7.0 | 0.00 | 0.00 | 0.00 | 75 | 1008.1 |
| 20260504041005 | 49 | 172 | 2.0 | 9.0 | 0.00 | 0.00 | 0.00 | 75 | 1008.2 |
| 20260504040505 | 50 | 201 | 2.0 | 7.0 | 0.00 | 0.00 | 0.00 | 74 | 1008.2 |
| 20260504040005 | 50 | 191 | 3.0 | 12.0 | 0.00 | 0.00 | 0.00 | 74 | 1008.3 |
| 20260504035505 | 50 | 197 | 3.0 | 8.0 | 0.00 | 0.00 | 0.00 | 74 | 1008.4 |
| 20260504035004 | 50 | 195 | 5.0 | 9.0 | 0.00 | 0.00 | 0.00 | 74 | 1008.4 |
| 20260504034505 | 50 | 180 | 2.0 | 8.0 | 0.00 | 0.00 | 0.00 | 74 | 1008.5 |
| 20260504034004 | 50 | 184 | 5.0 | 9.0 | 0.00 | 0.00 | 0.00 | 74 | 1008.5 |
| 20260504033505 | 50 | 205 | 2.0 | 8.0 | 0.00 | 0.00 | 0.00 | 74 | 1008.6 |
| 20260504032505 | 50 | 204 | 4.0 | 7.0 | 0.00 | 0.00 | 0.00 | 75 | 1008.7 |
| 20260504032004 | 49 | 166 | 3.0 | 10.0 | 0.00 | 0.00 | 0.00 | 75 | 1008.6 |
| 20260504031505 | 49 | 140 | 2.0 | 9.0 | 0.00 | 0.00 | 0.00 | 75 | 1008.7 |
| 20260504030505 | 49 | 170 | 3.0 | 9.0 | 0.00 | 0.00 | 0.00 | 75 | 1008.7 |
| 20260504030005 | 49 | 159 | 3.0 | 9.0 | 0.00 | 0.00 | 0.00 | 75 | 1008.9 |
| 20260504025505 | 49 | 159 | 2.0 | 7.0 | 0.00 | 0.00 | 0.00 | 75 | 1008.9 |
| 20260504025005 | 49 | 154 | 3.0 | 8.0 | 0.00 | 0.00 | 0.00 | 75 | 1008.9 |
| 20260504024004 | 49 | 172 | 1.0 | 5.0 | 0.00 | 0.00 | 0.00 | 75 | 1009.1 |
| 20260504023505 | 49 | 187 | 2.0 | 8.0 | 0.00 | 0.00 | 0.00 | 75 | 1009.1 |
| 20260504022505 | 49 | 154 | 3.0 | 7.0 | 0.00 | 0.00 | 0.00 | 74 | 1009.2 |
| 20260504022005 | 49 | 168 | 3.0 | 8.0 | 0.00 | 0.00 | 0.00 | 74 | 1009.2 |
| 20260504021005 | 49 | 163 | 2.0 | 8.0 | 0.00 | 0.00 | 0.00 | 74 | 1009.2 |
| 20260504020506 | 49 | 156 | 1.0 | 8.0 | 0.00 | 0.00 | 0.00 | 74 | 1009.2 |
| 20260504015005 | 49 | 139 | 2.0 | 7.0 | 0.00 | 0.00 | 0.00 | 73 | 1009.2 |
| 20260504014005 | 49 | 155 | 3.0 | 7.0 | 0.00 | 0.00 | 0.00 | 72 | 1009.2 |
| 20260504013505 | 49 | 149 | 5.0 | 8.0 | 0.00 | 0.00 | 0.00 | 72 | 1009.2 |
| 20260504013005 | 50 | 153 | 2.0 | 8.0 | 0.00 | 0.00 | 0.00 | 72 | 1009.2 |
| 20260504012504 | 50 | 178 | 1.0 | 7.0 | 0.00 | 0.00 | 0.00 | 71 | 1009.2 |
| 20260504011505 | 50 | 153 | 4.0 | 8.0 | 0.00 | 0.00 | 0.00 | 71 | 1009.2 |
| 20260504011005 | 50 | 147 | 3.0 | 7.0 | 0.00 | 0.00 | 0.00 | 71 | 1009.2 |
| 20260504010505 | 50 | 163 | 3.0 | 8.0 | 0.00 | 0.00 | 0.00 | 71 | 1009.2 |
| 20260504005505 | 50 | 153 | 4.0 | 10.0 | 0.00 | 0.00 | 0.00 | 71 | 1009.3 |
| 20260504005004 | 50 | 150 | 3.0 | 13.0 | 0.00 | 0.00 | 0.00 | 70 | 1009.3 |
| 20260504004504 | 50 | 153 | 3.0 | 7.0 | 0.00 | 0.00 | 0.00 | 70 | 1009.4 |
| 20260504004004 | 51 | 152 | 3.0 | 9.0 | 0.00 | 0.00 | 0.00 | 70 | 1009.4 |
| 20260504003505 | 51 | 148 | 3.0 | 8.0 | 0.00 | 0.00 | 0.00 | 70 | 1009.3 |
| 20260504003004 | 51 | 155 | 5.0 | 10.0 | 0.00 | 0.00 | 0.00 | 70 | 1009.4 |
| 20260504002505 | 51 | 146 | 2.0 | 7.0 | 0.00 | 0.00 | 0.00 | 70 | 1009.4 |
| 20260504002004 | 51 | 150 | 4.0 | 8.0 | 0.00 | 0.00 | 0.00 | 69 | 1009.4 |
| 20260504001505 | 51 | 161 | 3.0 | 8.0 | 0.00 | 0.00 | 0.00 | 69 | 1009.5 |
| 20260504000505 | 52 | 180 | 3.0 | 8.0 | 0.00 | 0.00 | 0.00 | 69 | 1009.7 |
| 20260504000004 | 52 | 169 | 3.0 | 8.0 | 0.00 | 0.00 | 0.00 | 69 | 1009.8 |
| 20260503235505 | 52 | 172 | 4.0 | 7.0 | 0.00 | 0.00 | 0.00 | 69 | 1009.9 |
| 20260503234505 | 52 | 156 | 3.0 | 7.0 | 0.00 | 0.00 | 0.00 | 69 | 1009.9 |
| 20260503234004 | 52 | 153 | 6.0 | 9.0 | 0.00 | 0.00 | 0.00 | 69 | 1009.9 |
| 20260503233005 | 52 | 155 | 2.0 | 12.0 | 0.00 | 0.00 | 0.00 | 70 | 1010.0 |